DW8453 Bekkjarvik NO current weather conditions

sailwx.info

Wind from 158 at 5 knots gusting 4

Air temperature 15.6° C
Dewpoint 10.3° C

Last reported at 2018-May-28 04:07 UTC.
Time now 2018-May-28 05:01 UTC

Location: N 60°01' E 005°12'.
View on Google Maps.

See reports from other nearby stations

  
Tides and Currents Weather Stations Pressure Air Temp Water Temp Dewpoint Dewpoint Depression Visibility Wind Speed Wind Dir Waves Ship Positions
date/time (UTC)wind fromknots sea level pressurealtimeterstation pressurevisibilityair tempwater tempwave heightnotes
2018-May-28 04:07 158 5 gusting 4 15.6
2018-May-28 04:02 137 3 gusting 4 15.6
2018-May-28 03:57 150 4 gusting 4 15.0
2018-May-28 03:52 149 4 gusting 4 15.0
2018-May-28 03:47 158 3 gusting 4 15.0
2018-May-28 03:42 135 4 gusting 2 15.0
2018-May-28 03:37 135 2 gusting 2 15.0
2018-May-28 03:32 158 3 gusting 4 15.0
2018-May-28 03:27 158 1 gusting 4 15.0
2018-May-28 03:22 158 1 gusting 2 15.0
2018-May-28 03:17 158 2 gusting 2 15.6
2018-May-28 03:12 180 2 gusting 2 15.6
2018-May-28 03:07 270 1 gusting 0 15.6
2018-May-28 03:02 158 0 gusting 1 15.6
2018-May-28 02:57 171 1 gusting 1 15.6
2018-May-28 02:52 158 1 gusting 1 15.6
2018-May-28 02:47 135 1 gusting 2 16.1
2018-May-28 02:42 158 0 gusting 4 16.1
2018-May-28 02:37 068 2 gusting 4 16.1
2018-May-28 02:32 053 4 gusting 2 16.1
2018-May-28 02:27 16.1
2018-May-28 02:22 006 4 gusting 2 16.1
2018-May-28 02:17 16.1
2018-May-28 02:12 315 0 gusting 1 16.1
2018-May-28 02:07 315 1 gusting 1 16.1
2018-May-28 02:02 338 1 gusting 1 16.1
2018-May-28 01:57 338 2 gusting 1 16.1
2018-May-28 01:52 338 2 gusting 2 16.1
2018-May-28 01:47 16.1
2018-May-28 01:42 338 0 gusting 0 16.1
2018-May-28 01:37 16.1
2018-May-28 01:32 16.1
2018-May-28 01:27 355 1 gusting 2 16.1
2018-May-28 01:22 338 0 gusting 1 16.1
2018-May-28 01:17 16.1
2018-May-28 01:12 158 16.7
2018-May-28 01:07 158 16.7
2018-May-28 01:02 158 16.7
2018-May-28 00:57 158 1 gusting 1 16.7
2018-May-28 00:52 158 1 gusting 1 16.7
2018-May-28 00:47 158 0 gusting 1 16.7
2018-May-28 00:42 158 1 gusting 1 16.7
2018-May-28 00:37 158 2 gusting 1 16.7
2018-May-28 00:32 158 0 gusting 1 16.7
2018-May-28 00:27 158 1 gusting 4 16.7
2018-May-28 00:22 158 2 gusting 4 16.7
2018-May-28 00:17 135 1 gusting 1 16.7
2018-May-28 00:12 135 2 gusting 2 16.7
2018-May-28 00:07 135 2 gusting 2 16.7
2018-May-28 00:02 135 4 gusting 4 17.2
2018-May-27 23:57 135 4 gusting 4 17.2
2018-May-27 23:52 158 2 gusting 4 17.2
2018-May-27 23:47 146 4 gusting 4 17.2
2018-May-27 23:42 135 2 gusting 2 17.2
2018-May-27 23:37 158 1 gusting 2 17.2
2018-May-27 23:32 158 4 gusting 4 17.2
2018-May-27 23:27 158 2 gusting 2 17.2
2018-May-27 23:22 175 2 gusting 2 17.2
2018-May-27 23:17 176 3 gusting 2 17.2
2018-May-27 23:12 158 2 gusting 2 17.2
2018-May-27 23:07 135 2 gusting 1 17.2
2018-May-27 23:02 135 1 gusting 2 17.8
2018-May-27 22:57 135 2 gusting 2 17.8
2018-May-27 22:52 147 3 gusting 4 17.8
2018-May-27 22:47 146 4 gusting 4 17.8
2018-May-27 22:42 145 3 gusting 4 17.8
2018-May-27 22:37 158 4 gusting 4 18.3
2018-May-27 22:32 135 2 gusting 2 18.3
2018-May-27 22:27 135 2 gusting 1 18.3
2018-May-27 22:22 135 2 gusting 1 18.3
2018-May-27 22:17 135 2 gusting 2 18.3
2018-May-27 22:12 135 2 gusting 2 18.3
2018-May-27 22:07 135 2 gusting 2 18.3
2018-May-27 22:02 158 2 gusting 2 18.9
2018-May-27 21:57 158 2 gusting 1 18.9
2018-May-27 21:52 158 2 gusting 1 18.9
2018-May-27 21:47 158 1 gusting 1 18.9
2018-May-27 21:42 158 2 gusting 1 18.9
2018-May-27 21:37 158 2 gusting 1 18.9
2018-May-27 21:32 180 1 gusting 1 18.9
2018-May-27 21:27 158 1 gusting 1 19.4
2018-May-27 21:22 158 2 gusting 2 19.4
2018-May-27 21:17 158 2 gusting 1 19.4
2018-May-27 21:12 158 1 gusting 1 19.4
2018-May-27 21:07 158 1 gusting 0 19.4
2018-May-27 21:02 158 1 gusting 1 19.4
2018-May-27 20:57 180 1 gusting 1 20.0
2018-May-27 20:52 180 1 gusting 1 20.0
2018-May-27 20:47 180 1 gusting 1 20.0
2018-May-27 20:42 180 1 gusting 1 20.6
2018-May-27 20:37 180 1 gusting 1 20.6
2018-May-27 20:32 158 1 gusting 1 21.1
2018-May-27 20:27 158 1 gusting 2 21.1
2018-May-27 20:22 158 1 gusting 2 21.7
2018-May-27 20:17 180 0 gusting 0 21.7
2018-May-27 20:12 180 1 gusting 1 22.2
2018-May-27 20:07 180 0 gusting 1 22.2
2018-May-27 20:02 180 1 gusting 1 22.2
2018-May-27 19:57 180 1 gusting 1 22.8
2018-May-27 19:52 129 1 gusting 1 22.8
2018-May-27 19:47 112 0 gusting 0 22.8
2018-May-27 19:42 112 0 gusting 1 23.3
2018-May-27 19:37 112 1 gusting 1 23.3
2018-May-27 19:32 112 1 gusting 1 23.9
2018-May-27 19:27 112 1 gusting 1 23.9
2018-May-27 19:22 092 1 gusting 1 25.0
2018-May-27 19:17 342 1 gusting 1 25.0
2018-May-27 19:12 356 1 gusting 0 25.6
2018-May-27 19:07 357 26.1
2018-May-27 19:02 338 0 gusting 0 26.7
2018-May-27 18:57 338 26.7
2018-May-27 18:52 338 0 gusting 0 27.2
2018-May-27 18:47 338 0 gusting 1 27.8
2018-May-27 18:42 338 1 gusting 1 28.3
2018-May-27 18:37 338 0 gusting 0 28.9
2018-May-27 18:32 338 30.0
2018-May-27 18:27 32.2
2018-May-27 18:22 33.3
2018-May-27 18:17 32.8
2018-May-27 18:12 022 1 gusting 1 32.2
2018-May-27 18:07 32.2
2018-May-27 18:02 338 1 gusting 1 32.2
2018-May-27 17:57 357 1 gusting 1 31.7
2018-May-27 17:52 338 0 gusting 1 31.7
2018-May-27 17:47 336 0 gusting 1 31.7
2018-May-27 17:42 338 0 gusting 1 30.6
2018-May-27 17:37 297 1 gusting 1 30.0
2018-May-27 17:32 337 2 gusting 2 29.4
2018-May-27 17:27 338 1 gusting 1 27.8
2018-May-27 17:22 338 1 gusting 1 26.7
2018-May-27 17:17 336 1 gusting 1 25.0
2018-May-27 17:12 359 1 gusting 1 23.3
2018-May-27 17:07 338 1 gusting 1 22.8
2018-May-27 17:02 338 1 gusting 1 22.2
2018-May-27 16:57 320 1 gusting 5 22.2
2018-May-27 16:52 22.2
2018-May-27 16:47 22.2
2018-May-27 16:42 22.8
2018-May-27 16:37 318 1 gusting 4 22.8
2018-May-27 16:32 341 2 gusting 4 22.8
2018-May-27 16:27 357 2 gusting 4 22.2
2018-May-27 16:22 338 2 gusting 4 22.8
2018-May-27 16:17 018 3 gusting 4 22.8
2018-May-27 16:12 014 1 gusting 4 22.8
2018-May-27 16:07 22.8
2018-May-27 16:02 22.8
2018-May-27 15:57 329 2 gusting 4 22.8
2018-May-27 15:52 305 4 gusting 5 22.8
2018-May-27 15:47 272 4 gusting 4 22.8
2018-May-27 15:42 304 4 gusting 5 22.8
2018-May-27 15:37 274 3 gusting 4 22.2
2018-May-27 15:32 329 5 gusting 6 22.2
2018-May-27 15:27 274 4 gusting 4 22.8
2018-May-27 15:22 293 4 gusting 5 22.8
2018-May-27 15:17 335 2 gusting 4 22.8
2018-May-27 15:12 313 3 gusting 4 22.8
2018-May-27 15:07 337 2 gusting 5 22.8
2018-May-27 15:02 313 4 gusting 5 22.8
2018-May-27 14:57 334 2 gusting 5 22.8
2018-May-27 14:52 258 2 gusting 5 22.8
2018-May-27 14:47 319 2 gusting 5 22.8
2018-May-27 14:42 326 4 gusting 5 22.8
2018-May-27 14:37 318 2 gusting 5 22.8
2018-May-27 14:32 311 4 gusting 6 22.8
2018-May-27 14:27 355 3 gusting 5 22.8
2018-May-27 14:22 335 5 gusting 5 22.8
2018-May-27 14:17 315 4 gusting 5 22.8
2018-May-27 14:12 318 5 gusting 6 22.8
2018-May-27 14:07 317 5 gusting 6 22.8
2018-May-27 14:02 296 5 gusting 6 22.8
2018-May-27 13:57 315 4 gusting 5 22.8
2018-May-27 13:52 333 5 gusting 5 22.8
2018-May-27 13:47 356 5 gusting 6 22.2
2018-May-27 13:42 355 4 gusting 5 22.2
2018-May-27 13:37 340 3 gusting 6 22.2
2018-May-27 13:32 341 5 gusting 6 22.2
2018-May-27 13:27 340 5 gusting 5 22.2
2018-May-27 13:22 340 6 gusting 8 22.8
2018-May-27 13:17 313 4 gusting 5 22.8
2018-May-27 13:12 317 5 gusting 6 23.3
2018-May-27 13:07 316 5 gusting 5 23.9
2018-May-27 13:02 317 5 gusting 8 23.9
2018-May-27 12:57 332 7 gusting 6 23.9
2018-May-27 12:52 308 6 gusting 6 24.4
2018-May-27 12:47 295 3 gusting 6 24.4
2018-May-27 12:42 315 5 gusting 6 24.4
2018-May-27 12:37 275 3 gusting 5 24.4
2018-May-27 12:32 340 5 gusting 6 24.4
2018-May-27 12:27 292 3 gusting 5 24.4
2018-May-27 12:22 315 4 gusting 4 24.4
2018-May-27 12:17 336 2 gusting 5 24.4
2018-May-27 12:12 24.4
2018-May-27 12:07 338 3 gusting 4 24.4
2018-May-27 12:02 043 2 gusting 2 24.4
2018-May-27 11:57 338 4 gusting 4 24.4
2018-May-27 11:52 318 3 gusting 4 24.4
2018-May-27 11:47 340 2 gusting 2 24.4
2018-May-27 11:42 338 2 gusting 2 24.4
2018-May-27 11:37 357 2 gusting 2 24.4
2018-May-27 11:32 338 3 gusting 4 25.0
2018-May-27 11:27 338 1 gusting 1 25.0
2018-May-27 11:22 338 1 gusting 1 25.0
2018-May-27 11:17 340 2 gusting 2 25.6
2018-May-27 11:12 359 1 gusting 2 25.6
2018-May-27 11:07 338 0 gusting 1 25.6
2018-May-27 11:02 135 1 gusting 1 26.1
2018-May-27 10:57 315 1 gusting 1 26.7
2018-May-27 10:52 202 2 gusting 1 26.1
2018-May-27 10:47 135 1 gusting 1 26.1
2018-May-27 10:42 225 1 gusting 1 26.1
2018-May-27 10:37 248 1 gusting 2 26.1
2018-May-27 10:32 077 4 gusting 4 26.1
2018-May-27 10:22 156 2 gusting 2 25.6
2018-May-27 10:17 135 2 gusting 2 25.6
2018-May-27 10:12 161 2 gusting 2 25.0
2018-May-27 10:07 159 1 gusting 1 24.4
2018-May-27 10:02 136 2 gusting 4 24.4
2018-May-27 09:57 133 2 gusting 2 24.4
2018-May-27 09:52 112 2 gusting 4 23.9
2018-May-27 09:47 155 2 gusting 4 23.9
2018-May-27 09:42 137 2 gusting 4 23.9
2018-May-27 09:37 158 1 gusting 2 23.3
2018-May-27 09:32 156 2 gusting 2 23.3
2018-May-27 09:27 160 2 gusting 2 23.3
2018-May-27 09:22 135 4 gusting 4 23.3
2018-May-27 09:17 157 3 gusting 4 23.3
2018-May-27 09:12 180 2 gusting 2 22.8
2018-May-27 09:07 114 2 gusting 2 22.8
2018-May-27 09:02 158 2 gusting 2 22.8
2018-May-27 08:57 158 1 gusting 1 22.8
2018-May-27 08:52 180 1 gusting 1 22.8
2018-May-27 08:47 135 2 gusting 2 22.8
2018-May-27 08:42 141 2 gusting 2 22.8
2018-May-27 08:37 172 1 gusting 4 22.8
2018-May-27 08:32 161 1 gusting 4 22.8
2018-May-27 08:27 180 2 gusting 1 22.2
2018-May-27 08:22 180 2 gusting 2 22.2
2018-May-27 08:17 202 1 gusting 1 21.7
2018-May-27 08:12 224 1 gusting 1 21.7
2018-May-27 08:07 180 1 gusting 1 21.7
2018-May-27 08:02 180 1 gusting 1 21.1
2018-May-27 07:57 225 0 gusting 0 21.1
2018-May-27 07:52 202 1 gusting 1 20.6
2018-May-27 07:47 202 1 gusting 2 20.6
2018-May-27 07:42 242 20.0
2018-May-27 07:37 315 20.0
2018-May-27 07:32 279 0 gusting 0 20.0
2018-May-27 07:27 315 19.4
2018-May-27 07:22 315 19.4
2018-May-27 07:17 315 1 gusting 1 19.4
2018-May-27 07:12 338 0 gusting 0 18.9
2018-May-27 07:07 338 18.9
2018-May-27 07:02 338 0 gusting 0 18.9
2018-May-27 06:57 338 0 gusting 0 18.3
2018-May-27 06:52 338 18.3
2018-May-27 06:47 338 0 gusting 0 18.3
2018-May-27 06:42 338 0 gusting 0 18.3
2018-May-27 06:37 338 1 gusting 1 18.3
2018-May-27 06:32 338 1 gusting 1 18.3
2018-May-27 06:27 180 18.3
2018-May-27 06:22 158 0 gusting 0 17.8
2018-May-27 06:17 158 0 gusting 1 17.8
2018-May-27 06:12 180 2 gusting 1 17.2
2018-May-27 06:07 158 1 gusting 1 17.2
2018-May-27 06:02 135 3 gusting 4 16.7
2018-May-27 05:57 189 2 gusting 2 16.7
2018-May-27 05:52 151 3 gusting 4 16.1
2018-May-27 05:47 144 3 gusting 4 16.1
2018-May-27 05:42 146 5 gusting 4 15.6
2018-May-27 05:37 158 2 gusting 4 15.6
2018-May-27 05:32 149 4 gusting 4 15.6
2018-May-27 05:27 135 5 gusting 5 15.0
2018-May-27 05:22 135 6 gusting 6 15.0
2018-May-27 05:17 135 5 gusting 5 15.0
2018-May-27 05:12 135 5 gusting 5 14.4
2018-May-27 05:07 135 6 gusting 5 14.4
2018-May-27 05:02 155 5 gusting 6 13.9
2018-May-27 04:57 142 6 gusting 6 13.9
2018-May-27 04:52 145 6 gusting 6 13.9
2018-May-27 04:47 158 6 gusting 6 13.9
2018-May-27 04:42 123 6 gusting 6 13.3
2018-May-27 04:37 135 6 gusting 6 13.3
2018-May-27 04:32 128 6 gusting 6 13.3
2018-May-27 04:27 135 6 gusting 6 13.3
2018-May-27 04:22 135 5 gusting 5 12.8
2018-May-27 04:17 155 5 gusting 6 12.8
2018-May-27 04:12 135 6 gusting 6 12.8
2018-May-27 04:07 156 6 gusting 6 12.2
2018-May-27 04:02 135 5 gusting 5 12.2
2018-May-27 03:57 135 4 gusting 5 12.2
2018-May-27 03:52 150 4 gusting 4 12.2
2018-May-27 03:47 135 4 gusting 4 11.7
2018-May-27 03:42 135 4 gusting 5 11.7
2018-May-27 03:37 146 5 gusting 5 11.7
2018-May-27 03:32 135 5 gusting 5 11.7
2018-May-27 03:27 135 5 gusting 6 11.7
2018-May-27 03:22 135 5 gusting 6 11.7
2018-May-27 03:17 152 5 gusting 6 11.1
2018-May-27 03:12 139 5 gusting 5 11.1
2018-May-27 03:07 154 4 gusting 5 11.1
2018-May-27 03:02 156 5 gusting 5 11.1
2018-May-27 02:57 135 5 gusting 5 11.1
2018-May-27 02:52 135 5 gusting 4 11.1
2018-May-27 02:47 135 4 gusting 2 11.1
2018-May-27 02:42 135 4 gusting 4 11.1
2018-May-27 02:37 135 4 gusting 4 11.1
2018-May-27 02:32 135 4 gusting 4 11.1
2018-May-27 02:27 135 4 gusting 5 11.1
2018-May-27 02:22 150 5 gusting 5 11.1
2018-May-27 02:17 140 4 gusting 4 11.1
2018-May-27 02:12 158 5 gusting 6 11.1
2018-May-27 02:07 135 6 gusting 6 10.6
2018-May-27 02:02 114 6 gusting 6 10.6
2018-May-27 01:57 148 5 gusting 6 10.6
2018-May-27 01:52 148 6 gusting 6 10.6
2018-May-27 01:47 135 6 gusting 5 10.6
2018-May-27 01:42 135 5 gusting 5 10.6
2018-May-27 01:37 135 5 gusting 5 10.6
2018-May-27 01:32 135 5 gusting 5 10.6
2018-May-27 01:27 135 4 gusting 5 10.6
2018-May-27 01:22 135 5 gusting 5 10.6
2018-May-27 01:17 135 4 gusting 5 10.6
2018-May-27 01:12 135 4 gusting 4 10.6
2018-May-27 01:07 135 4 gusting 4 10.6
2018-May-27 01:02 158 2 gusting 2 10.6
2018-May-27 00:57 158 1 gusting 1 10.6
2018-May-27 00:52 158 1 gusting 1 10.6
2018-May-27 00:47 158 1 gusting 1 10.6
2018-May-27 00:42 158 3 gusting 4 10.6
2018-May-27 00:37 135 3 gusting 4 10.6
2018-May-27 00:32 135 4 gusting 4 10.6
2018-May-27 00:27 135 5 gusting 5 10.6
2018-May-27 00:22 135 2 gusting 2 10.6
2018-May-27 00:17 135 4 gusting 4 10.6
2018-May-27 00:12 135 4 gusting 4 10.6
2018-May-27 00:07 135 4 gusting 4 10.6
2018-May-27 00:02 135 4 gusting 4 10.6
2018-May-26 23:57 135 4 gusting 4 10.6
2018-May-26 23:52 135 2 gusting 2 10.6
2018-May-26 23:47 135 1 gusting 2 10.6
2018-May-26 23:42 135 2 gusting 2 10.6
2018-May-26 23:37 135 2 gusting 2 10.6
2018-May-26 23:32 135 2 gusting 2 10.6
2018-May-26 23:27 135 2 gusting 2 10.6
2018-May-26 23:22 138 1 gusting 1 10.6
2018-May-26 23:17 292 0 gusting 1 10.6
2018-May-26 23:12 292 10.6
2018-May-26 23:07 292 10.6
2018-May-26 23:02 292 10.6
2018-May-26 22:57 292 0 gusting 0 10.6
2018-May-26 22:52 292 1 gusting 1 10.6
2018-May-26 22:47 292 1 gusting 1 10.6
2018-May-26 22:42 292 1 gusting 1 10.6
2018-May-26 22:37 292 2 gusting 1 10.6
2018-May-26 22:32 292 2 gusting 2 10.6
2018-May-26 22:27 311 2 gusting 2 10.6
2018-May-26 22:22 315 2 gusting 2 10.6
2018-May-26 22:17 273 3 gusting 2 11.1
2018-May-26 22:12 292 3 gusting 2 11.1
2018-May-26 22:07 294 3 gusting 2 11.1
2018-May-26 21:57 292 2 gusting 2 11.1
2018-May-26 21:52 311 3 gusting 2 11.1
2018-May-26 21:47 296 2 gusting 4 11.1
2018-May-26 21:42 290 4 gusting 4 11.1
2018-May-26 21:37 290 2 gusting 5 11.1
2018-May-26 21:32 289 4 gusting 5 11.1
2018-May-26 21:27 270 4 gusting 4 11.1
2018-May-26 21:22 291 4 gusting 4 11.1
2018-May-26 21:17 289 4 gusting 5 11.7
2018-May-26 21:12 290 3 gusting 4 11.7
2018-May-26 21:07 271 4 gusting 5 11.7
2018-May-26 21:02 292 5 gusting 6 11.7
2018-May-26 20:57 270 5 gusting 6 11.7
2018-May-26 20:52 292 5 gusting 6 12.2
2018-May-26 20:42 274 6 gusting 6 12.2
2018-May-26 20:37 292 5 gusting 5 12.2
2018-May-26 20:32 270 4 gusting 5 12.8
2018-May-26 20:27 270 4 gusting 4 12.8
2018-May-26 20:22 273 4 gusting 5 12.8
2018-May-26 20:17 272 4 gusting 5 12.8
2018-May-26 20:12 292 3 gusting 4 12.8
2018-May-26 20:07 292 5 gusting 4 13.3
2018-May-26 20:02 314 4 gusting 5 13.3
2018-May-26 19:57 315 5 gusting 6 13.9
2018-May-26 19:52 274 5 gusting 6 14.4
2018-May-26 19:47 296 5 gusting 5 15.0
2018-May-26 19:42 296 5 gusting 5 15.6
2018-May-26 19:37 297 5 gusting 5 16.1
2018-May-26 19:32 292 5 gusting 5 16.1
2018-May-26 19:27 292 5 gusting 6 16.7
2018-May-26 19:22 253 5 gusting 5 16.7
2018-May-26 19:17 292 5 gusting 6 16.7
2018-May-26 19:12 297 6 gusting 6 16.7
2018-May-26 19:07 294 5 gusting 5 16.7
2018-May-26 19:02 336 7 gusting 7 17.2
2018-May-26 18:57 292 6 gusting 7 17.2
2018-May-26 18:52 287 6 gusting 6 17.8
2018-May-26 18:42 288 4 gusting 5 18.3
2018-May-26 18:37 254 6 gusting 6 18.9
2018-May-26 18:32 283 5 gusting 5 18.9
2018-May-26 18:27 292 5 gusting 5 18.9
2018-May-26 18:22 310 5 gusting 6 19.4
2018-May-26 18:17 277 6 gusting 6 20.0
2018-May-26 18:12 275 5 gusting 6 20.0
2018-May-26 18:07 270 5 gusting 5 20.0
2018-May-26 18:02 273 6 gusting 6 20.6
2018-May-26 17:57 264 6 gusting 6 20.6
2018-May-26 17:52 297 5 gusting 6 20.6
2018-May-26 17:47 274 6 gusting 6 20.0
2018-May-26 17:42 270 5 gusting 6 20.0
2018-May-26 17:37 278 7 gusting 7 19.4
2018-May-26 17:32 292 6 gusting 6 19.4
2018-May-26 17:27 303 7 gusting 6 19.4
2018-May-26 17:22 296 7 gusting 7 18.9
2018-May-26 17:17 287 6 gusting 6 17.8
2018-May-26 17:12 274 5 gusting 6 16.7
2018-May-26 17:07 275 6 gusting 6 16.1
2018-May-26 17:02 265 5 gusting 5 15.6
2018-May-26 16:57 311 5 gusting 6 15.6
2018-May-26 16:52 315 7 gusting 6 15.6
2018-May-26 16:47 285 6 gusting 6 15.6
2018-May-26 16:42 296 7 gusting 8 15.6
2018-May-26 16:37 292 4 gusting 6 15.6
2018-May-26 16:32 308 5 gusting 6 15.6
2018-May-26 16:27 274 5 gusting 6 15.6
2018-May-26 16:22 299 6 gusting 6 15.6
2018-May-26 16:17 289 6 gusting 6 15.6
2018-May-26 16:12 315 5 gusting 6 15.6
2018-May-26 16:07 314 5 gusting 6 15.6
2018-May-26 16:02 292 6 gusting 8 15.6
2018-May-26 15:57 315 7 gusting 8 15.6
2018-May-26 15:52 302 6 gusting 7 16.1
2018-May-26 15:47 280 6 gusting 6 16.1
2018-May-26 15:42 288 6 gusting 6 16.1
2018-May-26 15:37 315 7 gusting 6 16.1
2018-May-26 15:32 305 5 gusting 8 16.1
2018-May-26 15:27 307 7 gusting 7 16.7
2018-May-26 15:22 287 6 gusting 6 16.7
2018-May-26 15:17 297 5 gusting 7 16.7
2018-May-26 15:12 303 6 gusting 8 17.2
2018-May-26 15:07 315 5 gusting 6 17.2
2018-May-26 15:02 315 4 gusting 5 16.7
2018-May-26 14:57 315 5 gusting 8 16.7
2018-May-26 14:52 329 6 gusting 6 17.2
2018-May-26 14:47 329 6 gusting 6 17.2
2018-May-26 14:42 281 6 gusting 6 17.2
2018-May-26 14:37 315 4 gusting 6 17.2
2018-May-26 14:32 306 6 gusting 6 17.2
2018-May-26 14:27 324 6 gusting 6 17.2
2018-May-26 14:22 323 5 gusting 6 17.2
2018-May-26 14:17 350 6 gusting 6 17.2
2018-May-26 14:12 330 5 gusting 6 17.2
2018-May-26 14:07 299 6 gusting 6 17.2
2018-May-26 14:02 313 7 gusting 6 17.8
2018-May-26 13:57 292 4 gusting 6 17.2
2018-May-26 13:42 327 5 gusting 5 17.2
2018-May-26 13:37 304 6 gusting 6 17.2
2018-May-26 13:32 315 5 gusting 6 16.7
2018-May-26 13:27 331 4 gusting 8 16.7
2018-May-26 13:22 298 6 gusting 8 16.7
2018-May-26 13:17 315 3 gusting 5 16.7
2018-May-26 13:12 338 6 gusting 6 16.7
2018-May-26 13:07 294 5 gusting 7 16.1
2018-May-26 13:02 293 7 gusting 8 16.1
2018-May-26 12:57 329 6 gusting 7 16.1
2018-May-26 12:52 315 7 gusting 7 15.6
2018-May-26 12:47 315 6 gusting 8 15.6
2018-May-26 12:42 315 6 gusting 8 16.1
2018-May-26 12:37 298 6 gusting 7 16.1
2018-May-26 12:32 315 5 gusting 8 16.1
2018-May-26 12:27 331 6 gusting 6 16.1
2018-May-26 12:22 321 7 gusting 6 16.1
2018-May-26 12:17 355 6 gusting 7 16.1
2018-May-26 12:12 312 5 gusting 6 16.1
2018-May-26 12:07 315 6 gusting 7 16.1
2018-May-26 12:02 293 6 gusting 6 16.1
2018-May-26 11:57 315 7 gusting 6 16.1
2018-May-26 11:52 315 4 gusting 4 16.1
2018-May-26 11:47 336 3 gusting 6 16.1
2018-May-26 11:42 324 4 gusting 6 15.6
2018-May-26 11:37 281 5 gusting 7 15.6
2018-May-26 11:32 352 8 gusting 10 16.1
2018-May-26 11:27 272 6 gusting 8 16.1
2018-May-26 11:22 315 6 gusting 6 16.7
2018-May-26 11:17 343 6 gusting 5 16.7
2018-May-26 11:12 315 6 gusting 6 16.7
2018-May-26 11:07 335 5 gusting 5 16.7
2018-May-26 11:02 317 4 gusting 6 16.7
2018-May-26 10:57 310 6 gusting 6 16.7
2018-May-26 10:52 312 4 gusting 5 16.7
2018-May-26 10:47 338 2 gusting 4 16.7
2018-May-26 10:42 304 6 gusting 6 16.7
2018-May-26 10:37 315 6 gusting 6 16.7
2018-May-26 10:32 308 6 gusting 6 16.7
2018-May-26 10:27 254 5 gusting 6 16.7
2018-May-26 10:22 308 5 gusting 5 16.7
2018-May-26 10:17 252 4 gusting 5 16.7
2018-May-26 10:12 338 3 gusting 6 16.7
2018-May-26 10:07 313 3 gusting 6 16.7
2018-May-26 10:02 316 5 gusting 5 16.7
2018-May-26 09:57 292 5 gusting 5 16.1
2018-May-26 09:52 315 7 gusting 6 16.1
2018-May-26 09:47 338 5 gusting 6 16.7
2018-May-26 09:42 303 5 gusting 5 16.1
2018-May-26 09:37 326 5 gusting 5 16.1
2018-May-26 09:32 338 4 gusting 4 16.1
2018-May-26 09:27 307 3 gusting 6 16.1
2018-May-26 09:22 332 4 gusting 5 15.6
2018-May-26 09:17 320 6 gusting 6 15.6
2018-May-26 09:12 334 5 gusting 6 15.6
2018-May-26 09:07 296 6 gusting 5 15.6
2018-May-26 09:02 315 4 gusting 6 15.6
2018-May-26 08:57 330 4 gusting 5 15.6
2018-May-26 08:52 351 5 gusting 5 15.6
2018-May-26 08:47 315 4 gusting 5 15.6
2018-May-26 08:42 315 3 gusting 4 15.6
2018-May-26 08:37 315 5 gusting 6 15.0
2018-May-26 08:32 307 4 gusting 6 15.6
2018-May-26 08:27 315 6 gusting 6 15.6
2018-May-26 08:22 320 2 gusting 4 15.6
2018-May-26 08:17 275 5 gusting 5 15.6
2018-May-26 08:12 315 5 gusting 6 15.6
2018-May-26 08:07 333 5 gusting 6 15.0
2018-May-26 08:02 317 4 gusting 4 15.0
2018-May-26 07:52 338 3 gusting 4 15.0
2018-May-26 07:47 288 4 gusting 5 15.0
2018-May-26 07:42 304 3 gusting 5 15.0
2018-May-26 07:37 325 4 gusting 5 15.0
2018-May-26 07:32 283 4 gusting 5 15.0
2018-May-26 07:27 329 4 gusting 4 15.0
2018-May-26 07:22 284 2 gusting 2 15.0
2018-May-26 07:17 299 3 gusting 4 15.0
2018-May-26 07:12 315 2 gusting 4 15.0
2018-May-26 07:07 315 4 gusting 4 14.4
2018-May-26 07:02 319 4 gusting 5 14.4
2018-May-26 06:57 338 2 gusting 4 14.4
2018-May-26 06:52 324 4 gusting 4 14.4
2018-May-26 06:47 304 3 gusting 5 14.4
2018-May-26 06:42 292 4 gusting 5 14.4
2018-May-26 06:37 324 3 gusting 4 14.4
2018-May-26 06:32 307 3 gusting 4 13.9
2018-May-26 06:27 288 3 gusting 5 13.9
2018-May-26 06:22 315 6 gusting 6 13.9
2018-May-26 06:17 322 5 gusting 6 13.9
2018-May-26 06:12 315 4 gusting 6 13.9
2018-May-26 06:07 276 3 gusting 4 14.4
2018-May-26 06:02 299 2 gusting 2 13.9
2018-May-26 05:57 303 1 gusting 1 13.9
2018-May-26 05:52 315 2 gusting 2 13.9
2018-May-26 05:47 324 1 gusting 1 13.9
2018-May-26 05:42 349 1 gusting 1 13.3
2018-May-26 05:37 333 1 gusting 1 13.3
2018-May-26 05:32 338 13.3
2018-May-26 05:27 338 0 gusting 0 12.8
2018-May-26 05:22 338 1 gusting 1 12.8
2018-May-26 05:17 306 0 gusting 2 12.8
2018-May-26 05:12 357 1 gusting 2 12.2
2018-May-26 05:07 356 1 gusting 1 12.2
2018-May-26 05:02 315 1 gusting 1 12.2